Satellite: PO-34
Catalog number: 25520
Epoch time:      08206.55922470
Element set:      43
Inclination:      028.4601 deg
RA of node:       288.5730 deg
Eccentricity:    0.0005140
Arg of perigee:   330.5538 deg
Mean anomaly:     029.4772 deg
Mean motion:   15.17212734 rev/day
Decay rate:       3.88e-06 rev/day^2
Epoch rev:           53884
Checksum:              290

Satellite: ISS
Catalog number: 25544
Epoch time:      08206.64825231
Element set:     921
Inclination:      051.6441 deg
RA of node:       183.7417 deg
Eccentricity:    0.0009508
Arg of perigee:   348.9882 deg
Mean anomaly:     345.6594 deg
Mean motion:   15.72647713 rev/day
Decay rate:     -6.764e-05 rev/day^2
Epoch rev:           55442
Checksum:              326

Satellite: CO-58
Catalog number: 28895
Epoch time:      08206.41098133
Element set:      77
Inclination:      098.0930 deg
RA of node:       099.5308 deg
Eccentricity:    0.0016875
Arg of perigee:   295.1459 deg
Mean anomaly:     064.7982 deg
Mean motion:   14.59684714 rev/day
Decay rate:        7.7e-07 rev/day^2
Epoch rev:           14591
Checksum:              359

Satellite: NCUBE2
Catalog number: 28897
Epoch time:      08206.64531386
Element set:     608
Inclination:      098.0916 deg
RA of node:       099.6873 deg
Eccentricity:    0.0016425
Arg of perigee:   296.3536 deg
Mean anomaly:     063.5986 deg
Mean motion:   14.59856541 rev/day
Decay rate:        8.3e-07 rev/day^2
Epoch rev:           13823
Checksum:              352

Satellite: FCAL
Catalog number: 29667
Epoch time:      08146.34060426
Element set:     979
Inclination:      051.6107 deg
RA of node:       065.3702 deg
Eccentricity:    0.0009039
Arg of perigee:   260.8350 deg
Mean anomaly:     099.5042 deg
Mean motion:   16.53464210 rev/day
Decay rate:  1.1864717e-01 rev/day^2
Epoch rev:            8291
Checksum:              307

Satellite: FALCON
Catalog number: 30776
Epoch time:      08205.57780886
Element set:    0377
Inclination:      035.4349 deg
RA of node:       292.7875 deg
Eccentricity:    0.0002076
Arg of perigee:   322.8256 deg
Mean anomaly:     037.2316 deg
Mean motion:   15.03022831 rev/day
Decay rate:       1.93e-06 rev/day^2
Epoch rev:           07562
Checksum:              304

Satellite: MAST
Catalog number: 31126
Epoch time:      08206.21008670
Element set:     382
Inclination:      098.0357 deg
RA of node:       269.1627 deg
Eccentricity:    0.0094116
Arg of perigee:   216.5860 deg
Mean anomaly:     142.8917 deg
Mean motion:   14.53436814 rev/day
Decay rate:       1.72e-06 rev/day^2
Epoch rev:            6739
Checksum:              295

Satellite: CAPE1
Catalog number: 31130
Epoch time:      08206.88713016
Element set:     361
Inclination:      098.0368 deg
RA of node:       268.7344 deg
Eccentricity:    0.0102143
Arg of perigee:   217.3952 deg
Mean anomaly:     142.0098 deg
Mean motion:   14.51978528 rev/day
Decay rate:        7.0e-07 rev/day^2
Epoch rev:            6719
Checksum:              291

Satellite: CUTE1-7
Catalog number: 32785
Epoch time:      08205.39167058
Element set:    0114
Inclination:      097.9926 deg
RA of node:       265.2221 deg
Eccentricity:    0.0015595
Arg of perigee:   022.8456 deg
Mean anomaly:     337.3461 deg
Mean motion:   14.81377216 rev/day
Decay rate:        7.5e-07 rev/day^2
Epoch rev:           01276
Checksum:              313

Satellite: COMPASS
Catalog number: 32787
Epoch time:      08206.80702673
Element set:     101
Inclination:      097.9875 deg
RA of node:       266.5904 deg
Eccentricity:    0.0016284
Arg of perigee:   019.9212 deg
Mean anomaly:     340.2636 deg
Mean motion:   14.81438471 rev/day
Decay rate:       3.76e-06 rev/day^2
Epoch rev:            1297
Checksum:              309

Satellite: AAUSAT2
Catalog number: 32788
Epoch time:      08206.53047195
Element set:     101
Inclination:      097.9874 deg
RA of node:       266.3269 deg
Eccentricity:    0.0016315
Arg of perigee:   023.4283 deg
Mean anomaly:     336.7684 deg
Mean motion:   14.81547904 rev/day
Decay rate:       4.31e-06 rev/day^2
Epoch rev:            1293
Checksum:              310

Satellite: DO-64
Catalog number: 32789
Epoch time:      08206.80799642
Element set:     110
Inclination:      097.9901 deg
RA of node:       266.6211 deg
Eccentricity:    0.0016266
Arg of perigee:   019.4263 deg
Mean anomaly:     340.7565 deg
Mean motion:   14.81435468 rev/day
Decay rate:       3.79e-06 rev/day^2
Epoch rev:            1297
Checksum:              329

Satellite: SEEDS
Catalog number: 32791
Epoch time:      08205.39676872
Element set:    0106
Inclination:      097.9891 deg
RA of node:       265.1971 deg
Eccentricity:    0.0016913
Arg of perigee:   021.5871 deg
Mean anomaly:     338.6062 deg
Mean motion:   14.81294363 rev/day
Decay rate:       1.32e-06 rev/day^2
Epoch rev:           01273
Checksum:              307

Satellite: CANX-2
Catalog number: 32797
Epoch time:      08205.10275194
Element set:    0052
Inclination:      097.9951 deg
RA of node:       264.9878 deg
Eccentricity:    0.0017301
Arg of perigee:   031.7907 deg
Mean anomaly:     328.4306 deg
Mean motion:   14.81861567 rev/day
Decay rate:      1.534e-05 rev/day^2
Epoch rev:           01140
Checksum:              305

